CAPE
nan nan nan nan nan nan nan nan nan nan nan 1 2 2 4 6 nan nan nan nan nan nan nan nan nan nan nan nan nan nan nan nan nan nan nan nan 0 0 1 3 3 4 6 7 7 9 10 12 12 13 13 14 14 14 18 17 17 18 19 22 22 27 33 35 35 42 44 48 47 47 44 43 41 41 44 43 46 46 48 52 52 56 59 59 59 65
1 1 0 nan nan nan nan nan nan nan nan 0 nan nan nan nan nan nan nan nan nan nan nan nan nan nan nan nan nan nan nan nan nan nan nan 0 1 1 2 4 4 6 7 9 9 12 12 12 12 14 13 13 14 14 14 14 14 16 20 23 23 27 31 33 33 37 39 41 40 40 40 37 35 35 38 38 41 41 42 49 49 51 55 57 57 64
1 1 1 nan nan nan 0 nan nan nan nan nan nan nan nan nan nan nan nan nan nan nan nan nan nan nan nan nan nan nan nan nan nan nan nan 0 2 2 3 4 4 6 8 10 10 12 12 13 13 13 13 13 14 14 14 16 16 18 21 23 23 26 29 30 30 31 30 33 31 31 32 30 29 29 31 35 38 38 40 41 41 47 51 55 55 60
nan 0 1 nan nan nan nan 0 nan nan nan nan nan nan nan nan nan nan nan nan nan nan nan nan nan nan nan nan nan nan nan nan nan nan nan 0 1 1 3 5 5 7 9 9 9 9 10 11 11 12 13 13 14 14 17 19 19 21 24 26 26 28 28 28 28 28 27 26 25 25 27 26 27 27 27 32 36 36 39 38 38 39 44 52 52 58
nan 0 0 nan nan nan nan nan nan nan nan nan nan nan nan nan nan nan nan nan nan nan nan nan nan nan nan nan nan nan nan nan nan nan nan nan 0 0 2 3 3 6 7 8 8 8 9 10 10 10 12 14 15 15 18 21 21 23 26 29 29 30 30 29 29 29 25 24 25 25 24 25 25 25 26 29 32 32 35 35 35 38 37 48 48 52
nan 0 0 nan nan 0 nan nan nan nan nan nan nan nan nan nan nan nan nan nan nan nan nan nan nan nan nan nan nan nan nan nan nan nan nan nan nan nan 0 1 1 3 3 5 5 5 6 8 8 10 13 17 19 19 24 28 28 28 26 30 30 30 31 32 32 30 26 24 22 22 23 22 23 23 24 25 27 27 32 35 35 36 38 42 42 46
nan nan 0 nan nan nan nan nan nan nan nan nan nan nan nan nan nan nan nan nan nan nan nan nan nan nan nan nan nan nan nan nan nan nan nan nan nan nan nan 0 0 1 2 3 3 4 7 10 10 13 16 20 23 23 25 24 24 26 27 27 27 26 25 26 26 24 23 22 21 21 20 19 19 19 20 21 24 24 27 31 31 35 40 41 41 46
nan nan nan nan nan nan nan nan nan nan nan nan nan nan nan nan nan nan nan nan nan nan nan nan nan nan nan nan nan nan nan nan nan nan nan nan nan nan nan 1 1 0 2 5 5 8 11 11 11 13 15 15 15 15 14 13 13 11 10 10 10 9 11 12 12 13 13 13 13 13 13 15 15 15 17 19 19 19 23 29 29 34 44 49 49 54
nan nan nan nan nan nan nan nan nan nan nan nan nan nan nan nan nan nan nan nan nan nan nan nan nan nan nan nan nan nan nan nan nan nan nan nan nan nan nan 0 0 0 2 4 4 6 8 8 8 8 8 7 6 6 5 4 4 3 4 3 3 4 4 6 6 7 8 10 13 13 13 16 18 18 18 19 20 20 23 28 28 36 46 53 53 60
nan nan nan nan nan nan nan nan nan nan nan nan nan nan nan nan nan nan nan nan nan nan nan nan nan nan nan nan nan nan nan nan nan nan nan nan nan nan nan nan nan nan 0 1 1 2 2 1 1 1 1 1 0 0 0 0 0 0 0 0 0 1 2 3 3 6 8 10 12 12 14 17 18 18 20 22 23 23 23 26 26 31 42 51 51 59
nan nan nan nan nan nan nan nan nan nan nan nan nan nan nan nan nan nan nan nan nan nan nan nan nan nan nan nan nan nan nan nan nan nan nan nan nan nan nan nan nan nan nan nan nan nan nan nan nan nan nan nan nan nan nan nan nan nan nan nan nan nan 0 2 2 5 7 10 13 13 17 18 20 20 22 24 25 25 25 26 26 30 37 49 49 55
nan nan nan nan nan nan nan nan nan nan nan nan nan nan nan nan nan nan nan nan nan nan nan nan nan nan nan nan nan nan nan nan nan nan nan nan nan nan nan nan nan nan nan nan nan nan nan nan nan nan nan nan nan nan nan nan nan nan nan nan nan nan 1 2 2 4 8 11 14 14 16 17 22 22 24 28 29 29 30 30 30 31 36 44 44 52
nan nan nan nan nan nan nan nan nan nan nan nan nan nan nan nan nan nan nan nan nan nan nan nan nan nan nan nan nan nan nan nan nan nan nan nan nan nan nan nan nan nan nan nan nan nan nan nan nan nan nan nan nan nan nan nan nan nan nan nan nan 0 1 4 4 8 13 15 17 17 19 21 24 24 27 30 33 33 34 35 35 37 41 49 49 54
nan nan nan nan nan nan nan nan nan nan nan nan nan nan nan nan nan nan nan nan nan nan nan nan nan nan nan nan nan nan nan nan nan nan nan nan nan nan nan nan nan nan nan nan nan nan nan nan nan nan nan nan nan nan nan nan nan nan nan 0 0 2 5 9 9 13 16 19 20 20 24 27 29 29 32 34 38 38 38 39 39 41 43 49 49 54
nan nan nan nan nan nan nan nan nan nan nan nan nan nan nan nan nan nan nan nan nan nan nan nan nan nan nan nan nan nan nan nan nan nan nan nan nan nan nan nan nan nan nan nan nan nan nan nan nan nan nan nan nan nan nan nan nan nan 0 2 2 6 9 13 13 17 21 24 25 25 30 31 34 34 37 42 44 44 41 45 45 45 47 48 48 54
nan nan nan nan nan nan nan nan nan nan nan nan nan nan nan nan nan nan nan nan nan nan nan nan nan nan nan nan nan nan nan nan nan nan nan nan nan nan nan nan nan nan nan nan nan nan nan nan nan nan nan nan nan nan nan nan nan nan 1 5 5 8 12 15 15 19 25 28 28 28 32 36 38 38 39 43 42 42 41 43 43 44 47 51 51 52
nan nan nan nan nan nan nan nan nan nan nan nan nan nan nan nan nan nan nan nan nan nan nan nan nan nan nan nan nan nan nan nan nan nan nan nan nan nan nan nan nan nan nan nan nan nan nan nan nan nan nan nan nan nan nan nan nan 0 2 6 6 10 14 18 18 21 23 26 29 29 31 33 35 35 38 39 38 38 40 42 42 43 47 49 49 51
nan nan nan nan nan nan nan nan nan nan nan nan nan nan nan nan nan nan nan nan nan nan nan nan nan nan nan nan nan nan nan nan nan nan nan nan nan nan nan nan nan nan nan nan nan nan nan nan nan nan nan nan nan nan nan 0 0 0 2 7 7 10 14 16 16 18 22 22 25 25 27 29 31 31 33 36 35 35 37 39 39 41 43 42 42 46
nan nan nan nan nan nan nan nan nan nan nan nan nan nan nan nan nan nan nan nan nan nan nan nan nan nan nan nan nan nan nan nan nan nan nan nan nan nan nan nan nan nan nan nan nan nan nan nan nan nan nan nan nan nan nan nan nan 1 3 6 6 9 11 14 14 17 17 20 22 22 22 25 26 26 28 30 34 34 35 36 36 39 40 42 42 42
nan nan nan nan nan nan nan nan nan nan nan nan nan nan nan nan nan nan nan nan nan nan nan nan nan nan nan nan nan nan nan nan nan nan nan nan nan nan nan nan nan nan nan nan nan nan nan nan nan nan nan nan nan nan nan nan nan 1 3 4 4 5 8 9 9 12 15 17 18 18 19 22 23 23 26 28 31 31 34 36 36 38 40 41 41 42
nan nan nan nan nan nan nan nan nan nan nan nan nan nan nan nan nan nan nan nan nan nan nan nan nan nan nan nan nan nan nan nan nan nan nan nan nan nan nan nan nan nan nan nan nan nan nan nan nan nan nan nan nan nan nan nan nan 0 1 2 2 4 3 5 5 9 13 16 15 15 17 20 23 23 26 28 31 31 33 34 34 36 37 39 39 40
nan nan nan nan nan nan nan nan nan nan nan nan nan nan nan nan nan nan nan nan nan nan nan nan nan nan nan nan nan nan nan nan nan nan nan nan nan nan nan nan nan nan nan nan nan nan nan nan nan nan nan nan nan nan nan nan nan nan 0 1 1 1 1 4 4 7 11 14 15 15 17 18 20 20 24 27 29 29 30 32 32 34 35 36 36 37
nan nan nan nan nan nan nan nan nan nan nan nan nan nan nan nan nan nan nan nan nan nan nan nan nan nan nan nan nan nan nan nan nan nan nan nan nan nan nan nan nan nan nan nan nan nan nan nan nan nan nan nan nan nan nan nan nan nan 0 0 0 0 1 3 3 7 10 13 14 14 15 17 17 17 22 24 24 24 26 29 29 30 31 34 34 36
nan nan nan nan nan nan nan nan nan nan nan nan nan nan nan nan nan nan nan nan nan nan nan 2 2 nan nan nan nan nan nan nan nan nan nan nan nan nan nan nan nan nan nan nan nan nan nan nan nan nan nan nan nan nan nan nan nan nan nan nan nan 0 1 4 4 6 8 10 13 13 14 16 17 17 18 19 21 21 22 26 26 29 30 35 35 36
nan nan nan nan nan nan nan nan nan nan nan nan nan nan nan nan nan nan nan nan nan nan nan nan nan nan nan nan nan nan nan nan nan nan nan nan nan nan nan nan nan nan nan nan nan nan nan nan nan nan nan nan nan nan nan nan nan nan nan nan nan 0 1 2 2 4 5 7 9 9 11 13 16 16 17 18 21 21 23 25 25 30 34 34 34 34
nan nan nan nan nan nan nan nan 4 4 nan nan nan nan nan nan nan nan nan nan nan nan nan 0 0 nan nan nan nan nan nan nan nan nan nan nan nan nan nan nan nan nan nan nan nan nan nan nan nan nan nan nan nan nan nan nan nan nan nan nan nan 0 1 1 1 2 3 4 5 5 9 11 15 15 18 19 22 22 26 29 29 30 34 34 34 36
3 0 3 6 6 7 8 10 13 13 23 7 nan nan nan nan nan nan nan nan nan nan 0 0 0 nan nan nan nan nan nan nan nan nan nan nan nan nan nan nan nan nan nan nan nan nan nan nan nan nan nan nan nan nan nan nan nan nan nan nan nan nan 0 0 0 1 2 3 4 4 7 10 14 14 18 19 22 22 28 26 26 29 32 32 32 35
2 3 4 4 4 5 6 9 13 13 17 21 25 25 8 0 0 0 4 nan nan nan nan nan nan nan nan nan nan nan nan nan nan nan nan nan nan nan nan nan nan nan nan nan nan nan nan nan nan nan nan nan nan nan nan nan nan nan nan nan nan nan nan 0 0 0 1 2 4 4 7 10 14 14 17 18 22 22 25 27 27 28 30 19 19 4
nan nan nan 1 1 4 5 7 8 8 10 14 21 21 10 0 3 3 2 nan nan nan nan nan nan nan nan nan nan nan nan nan nan nan nan nan nan nan nan nan nan nan nan nan nan nan nan nan nan nan nan nan nan nan nan nan nan nan nan nan nan nan nan nan nan 0 1 2 3 3 6 10 13 13 15 17 20 20 24 27 27 28 22 11 11 2
nan nan nan nan nan nan nan nan nan nan 2 4 8 8 9 0 0 0 nan nan nan nan 0 1 1 nan nan nan nan nan nan nan nan nan nan nan nan nan nan nan nan nan nan nan nan nan nan nan nan nan nan nan nan nan nan nan nan nan nan nan nan nan nan nan nan 0 1 2 3 3 5 7 9 9 11 14 17 17 20 24 24 19 7 1 1 0
nan nan nan nan nan nan nan nan nan nan nan 3 3 3 nan nan nan nan nan nan nan nan nan nan nan nan nan nan nan nan nan nan nan nan nan nan nan nan nan nan nan nan nan nan nan nan nan nan nan nan nan nan nan nan nan nan nan nan nan nan nan nan nan nan nan 0 1 2 2 2 4 5 6 6 7 10 12 12 16 20 20 15 1 nan nan nan
nan nan nan nan nan nan nan nan nan nan nan nan nan nan nan nan nan nan nan nan nan nan nan nan nan nan nan nan 0 0 nan nan nan nan nan nan nan nan nan nan nan nan nan nan nan nan nan nan nan nan nan nan nan nan nan nan nan nan nan nan nan nan nan nan nan nan nan 0 1 1 2 2 3 3 3 4 7 7 10 13 13 15 2 nan nan nan
nan nan nan nan nan nan nan nan nan nan nan nan nan nan nan nan nan nan nan nan nan nan nan nan nan nan nan nan nan nan nan nan nan nan nan nan nan nan nan nan nan nan nan nan nan nan nan nan nan nan nan nan nan nan nan nan nan nan nan nan nan nan nan nan nan nan nan nan nan nan 0 0 1 1 2 3 5 5 9 14 14 19 19 2 2 4
nan nan nan nan nan nan nan nan nan nan nan nan nan nan nan nan nan nan nan nan nan nan nan nan nan nan nan nan nan nan nan nan nan nan nan nan nan nan nan nan nan nan nan nan nan nan nan nan nan nan nan nan nan nan nan nan nan nan nan nan nan nan nan nan nan nan nan nan nan nan nan nan nan nan nan 1 4 4 8 14 14 22 28 17 17 8
nan nan nan nan nan nan nan nan nan nan nan nan nan nan nan nan nan nan nan nan nan nan nan nan nan nan nan nan nan nan nan nan nan nan nan nan nan nan nan nan nan nan nan nan nan nan nan nan nan 1 nan nan nan nan nan nan nan nan nan nan nan nan nan nan nan nan nan nan nan nan nan nan nan nan nan nan 3 3 10 14 14 20 24 31 31 21
nan nan nan nan nan nan nan nan nan nan nan nan nan nan nan nan nan nan nan nan nan nan nan nan nan nan nan nan nan nan nan nan nan nan nan nan nan nan nan nan nan 0 nan nan nan nan nan nan nan 1 0 nan nan nan nan nan nan nan nan nan nan nan nan nan nan nan nan nan nan nan nan nan nan nan nan 1 7 7 9 9 9 9 10 19 19 21
nan nan nan nan nan nan nan nan nan nan nan nan nan nan nan nan nan nan nan nan nan nan nan nan nan nan nan nan nan nan nan nan nan nan nan nan nan nan nan 0 0 2 nan nan nan nan nan nan nan nan nan nan nan nan nan nan nan nan nan nan nan nan nan nan nan nan nan nan nan nan nan nan nan nan nan 1 0 0 2 4 4 2 5 8 8 13
nan nan nan nan nan nan nan nan nan nan nan nan nan nan nan nan nan nan nan nan nan nan nan nan nan nan nan nan nan nan nan nan nan nan nan nan nan nan nan 0 0 1 1 nan nan nan nan nan nan nan nan nan nan nan nan nan nan nan nan nan nan nan nan nan nan nan nan nan nan nan nan nan nan nan nan nan nan nan nan nan nan nan 0 1 1 8
nan nan nan nan nan nan nan nan nan nan nan nan nan nan nan nan nan nan nan nan nan nan nan nan nan nan nan nan nan nan nan nan nan nan nan nan nan nan nan nan nan nan nan nan nan nan nan nan nan nan nan nan nan nan nan nan nan nan nan nan nan nan nan nan nan nan nan nan nan nan nan nan nan nan nan nan nan nan nan nan nan nan nan nan nan nan
nan nan nan nan nan nan nan nan nan nan nan nan nan nan nan nan nan nan nan nan nan nan nan nan nan nan nan nan nan nan nan nan nan nan nan nan nan nan nan nan nan nan nan nan nan nan nan nan nan nan nan nan nan nan nan nan nan nan 0 nan nan nan nan nan nan nan nan nan nan nan nan nan nan nan nan nan nan nan nan nan nan nan nan nan nan nan
nan nan nan nan nan nan nan nan nan nan nan nan nan nan nan nan nan nan nan nan nan nan nan nan nan nan nan nan nan nan nan nan nan nan nan nan nan nan nan nan nan nan nan nan nan nan nan nan nan nan nan nan nan nan nan nan nan 2 5 nan nan nan nan 0 0 nan nan nan nan nan nan nan nan nan nan nan nan nan nan nan nan nan nan nan nan nan
nan nan nan nan nan nan nan nan nan nan nan nan nan nan nan nan nan nan nan nan nan nan nan nan nan nan nan nan nan nan nan nan nan nan nan nan nan nan nan nan nan nan nan nan nan nan nan nan nan nan nan nan nan nan nan nan nan 1 2 0 0 nan 1 nan nan nan nan nan nan nan nan nan nan nan nan nan nan nan nan nan nan nan nan nan nan nan
nan nan nan nan nan nan nan 0 0 0 nan nan nan nan nan nan nan nan nan nan nan nan nan nan nan nan nan nan nan nan nan nan nan nan nan nan nan nan nan nan nan nan nan nan nan nan nan nan nan nan nan nan nan nan nan nan nan nan 0 1 1 1 nan nan nan nan nan nan nan nan nan nan nan nan nan nan nan nan nan nan nan nan nan nan nan nan
nan nan nan nan nan nan 0 nan nan nan nan nan nan nan nan nan nan nan nan nan nan nan nan nan nan nan nan nan nan nan nan nan nan nan nan nan nan nan nan nan nan nan nan nan nan nan nan nan nan nan nan nan nan nan nan nan nan nan nan 1 1 0 nan nan nan nan nan nan nan nan nan nan nan nan nan nan nan nan nan nan nan nan nan nan nan nan
nan 0 1 nan nan nan nan nan nan nan nan nan nan nan nan nan nan nan nan nan nan nan nan nan nan nan nan nan nan nan nan nan nan nan nan nan nan nan nan nan nan nan nan nan nan nan nan nan nan nan nan nan nan nan nan nan nan 0 1 3 3 1 0 1 1 0 nan nan nan nan nan nan nan nan nan nan nan nan nan nan nan nan nan nan nan nan
0 0 0 0 0 nan 0 0 nan nan nan nan nan nan nan nan nan nan nan nan nan nan nan 0 0 nan nan nan nan nan nan nan nan nan nan nan nan nan nan nan nan nan nan nan nan nan nan nan nan nan nan nan nan nan nan nan nan nan nan 2 2 1 0 0 0 nan nan nan nan nan nan nan nan nan nan nan nan nan nan nan nan nan nan nan nan nan
nan nan nan nan nan nan nan nan nan nan nan nan nan nan nan nan nan nan nan nan nan nan 0 1 1 nan 0 nan nan nan nan nan nan nan nan nan nan nan nan nan nan nan nan nan nan nan nan nan nan nan nan nan nan nan nan nan nan nan nan nan nan 0 nan nan nan nan nan nan nan nan nan nan nan nan nan nan nan nan nan 0 0 0 1 1 1 1
0 0 nan nan nan nan nan nan nan nan nan nan nan nan nan nan nan nan nan nan nan 0 2 nan nan nan nan nan nan nan nan nan nan nan nan nan nan nan nan nan nan nan nan nan nan nan nan nan nan nan nan nan nan nan nan nan nan nan nan nan nan nan nan nan nan nan nan nan nan nan nan nan nan nan nan nan nan nan 0 1 1 1 0 nan nan nan
0 nan nan 0 0 0 nan nan nan nan 0 0 nan nan nan nan 10 10 0 nan nan nan nan nan nan nan nan nan nan nan nan nan nan nan nan nan nan nan nan nan nan nan nan nan nan nan nan nan nan nan nan nan nan nan nan nan nan nan nan nan nan nan nan nan nan nan nan nan nan nan nan nan nan nan nan nan 0 0 1 1 1 nan nan nan nan nan
nan nan 0 1 1 0 nan 0 0 0 1 1 0 0 nan nan nan nan nan nan nan nan nan nan nan nan nan nan nan nan nan nan nan nan nan nan nan nan nan nan nan nan nan nan nan nan nan nan nan nan 4 0 nan nan nan nan nan nan nan nan nan nan nan nan nan nan nan nan nan nan nan 0 1 1 1 1 1 1 1 nan nan nan nan nan nan nan
2 0 0 0 0 0 0 0 1 1 2 3 3 3 0 nan nan nan nan nan nan nan nan nan nan nan nan nan nan nan nan nan nan nan nan nan nan nan nan nan nan nan nan nan nan nan nan nan nan nan 2 15 4 4 nan nan nan nan nan nan nan nan nan nan nan nan 0 nan 0 0 0 1 1 1 1 1 1 1 0 0 0 nan nan nan nan nan
CIN
nan nan nan nan nan nan nan nan nan nan nan -0 -0 -0 -0 -0 nan nan nan nan nan nan nan nan nan nan nan nan nan nan nan nan nan nan nan nan -0 -0 -0 -0 -0 -0 -0 -0 -0 -0 -0 -0 -0 -0 -0 -0 -0 -0 -0 -0 -0 -0 -0 -0 -0 -0 -0 -0 -0 -0 -0 -0 -0 -0 -0 -0 -0 -0 -0 -0 -0 -0 -0 -0 -0 -0 -0 -0 -0 -0
-0 -0 -0 nan nan nan nan nan nan nan nan -1 nan nan nan nan nan nan nan nan nan nan nan nan nan nan nan nan nan nan nan nan nan nan nan -0 -0 -0 -0 -0 -0 -0 -0 -0 -0 -0 -0 -0 -0 -0 -0 -0 -0 -0 -0 -0 -0 -0 -0 -0 -0 -0 -0 -0 -0 -0 -0 -0 -0 -0 -0 -0 -0 -0 -0 -0 -0 -0 -0 -0 -0 -0 -0 -0 -0 -0
-0 -0 -0 nan nan nan -0 nan nan nan nan nan nan nan nan nan nan nan nan nan nan nan nan nan nan nan nan nan nan nan nan nan nan nan nan -0 -0 -0 -0 -0 -0 -0 -0 -0 -0 -0 -0 -0 -0 -0 -0 -0 -0 -0 -0 -0 -0 -0 -0 -0 -0 -0 -0 -0 -0 -0 -0 -0 -0 -0 -0 -0 -0 -0 -0 -0 -0 -0 -0 -0 -0 -0 -0 -0 -0 -0
nan -0 -0 nan nan nan nan -0 nan nan nan nan nan nan nan nan nan nan nan nan nan nan nan nan nan nan nan nan nan nan nan nan nan nan nan -0 -0 -0 -0 -0 -0 -0 -0 -0 -0 -0 -0 -0 -0 -0 -0 -0 -0 -0 -0 -0 -0 -0 -0 -0 -0 -0 -0 -0 -0 -0 -0 -0 -0 -0 -0 -0 -0 -0 -0 -0 -0 -0 -0 -0 -0 -0 -0 -0 -0 -0
nan -0 -0 nan nan nan nan nan nan nan nan nan nan nan nan nan nan nan nan nan nan nan nan nan nan nan nan nan nan nan nan nan nan nan nan nan -0 -0 -0 -0 -0 -0 -0 -0 -0 -0 -0 -0 -0 -0 -0 -0 -0 -0 -0 -0 -0 -0 -0 -0 -0 -0 -0 -0 -0 -0 -0 -0 -0 -0 -0 -0 -0 -0 -0 -0 -0 -0 -0 -0 -0 -0 -0 -0 -0 -0
nan -1 -0 nan nan -0 nan nan nan nan nan nan nan nan nan nan nan nan nan nan nan nan nan nan nan nan nan nan nan nan nan nan nan nan nan nan nan nan -0 -0 -0 -0 -0 -0 -0 -0 -0 -0 -0 -0 -0 -0 -0 -0 -0 -0 -0 -0 -0 -0 -0 -0 -0 -0 -0 -0 -0 -0 -0 -0 -0 -0 -0 -0 -0 -0 -0 -0 -0 -0 -0 -0 -0 -0 -0 -0
nan nan -1 nan nan nan nan nan nan nan nan nan nan nan nan nan nan nan nan nan nan nan nan nan nan nan nan nan nan nan nan nan nan nan nan nan nan nan nan -0 -0 -0 -0 -0 -0 -0 -0 -0 -0 -0 -0 -0 -0 -0 -0 -0 -0 -0 -0 -0 -0 -0 -0 -0 -0 -0 -0 -0 -0 -0 -0 -0 -0 -0 -0 -0 -0 -0 -0 -0 -0 -0 -0 -0 -0 -0
nan nan nan nan nan nan nan nan nan nan nan nan nan nan nan nan nan nan nan nan nan nan nan nan nan nan nan nan nan nan nan nan nan nan nan nan nan nan nan -0 -0 -0 -0 -0 -0 -0 -0 -0 -0 -0 -0 -0 -0 -0 -0 -0 -0 -0 -0 -0 -0 -0 -0 -0 -0 -0 -0 -0 -0 -0 -0 -0 -0 -0 -0 -0 -0 -0 -0 -0 -0 -0 -0 -0 -0 -0
nan nan nan nan nan nan nan nan nan nan nan nan nan nan nan nan nan nan nan nan nan nan nan nan nan nan nan nan nan nan nan nan nan nan nan nan nan nan nan -0 -0 -0 -0 -0 -0 -0 -0 -0 -0 -0 -0 -0 -0 -0 -0 -0 -0 -0 -0 -0 -0 -0 -0 -0 -0 -0 -0 -0 -0 -0 -0 -0 -0 -0 -0 -0 -0 -0 -0 -0 -0 -0 -0 -0 -0 -0
nan nan nan nan nan nan nan nan nan nan nan nan nan nan nan nan nan nan nan nan nan nan nan nan nan nan nan nan nan nan nan nan nan nan nan nan nan nan nan nan nan nan -0 -0 -0 -0 -0 -0 -0 -0 -0 -0 -0 -0 -0 -0 -0 -0 -0 -0 -0 -0 -0 -0 -0 -0 -0 -0 -0 -0 -0 -0 -0 -0 -0 -0 -0 -0 -0 -0 -0 -0 -0 -0 -0 -0
nan nan nan nan nan nan nan nan nan nan nan nan nan nan nan nan nan nan nan nan nan nan nan nan nan nan nan nan nan nan nan nan nan nan nan nan nan nan nan nan nan nan nan nan nan nan nan nan nan nan nan nan nan nan nan nan nan nan nan nan nan nan -0 -0 -0 -0 -0 -0 -0 -0 -0 -0 -0 -0 -0 -0 -0 -0 -0 -0 -0 -0 -0 -0 -0 -0
nan nan nan nan nan nan nan nan nan nan nan nan nan nan nan nan nan nan nan nan nan nan nan nan nan nan nan nan nan nan nan nan nan nan nan nan nan nan nan nan nan nan nan nan nan nan nan nan nan nan nan nan nan nan nan nan nan nan nan nan nan nan -0 -0 -0 -0 -0 -0 -0 -0 -0 -0 -0 -0 -0 -0 -0 -0 -0 -0 -0 -0 -0 -0 -0 -0
nan nan nan nan nan nan nan nan nan nan nan nan nan nan nan nan nan nan nan nan nan nan nan nan nan nan nan nan nan nan nan nan nan nan nan nan nan nan nan nan nan nan nan nan nan nan nan nan nan nan nan nan nan nan nan nan nan nan nan nan nan -0 -0 -0 -0 -0 -0 -0 -0 -0 -0 -0 -0 -0 -0 -0 -0 -0 -0 -0 -0 -0 -0 -0 -0 -0
nan nan nan nan nan nan nan nan nan nan nan nan nan nan nan nan nan nan nan nan nan nan nan nan nan nan nan nan nan nan nan nan nan nan nan nan nan nan nan nan nan nan nan nan nan nan nan nan nan nan nan nan nan nan nan nan nan nan nan -0 -0 -0 -0 -0 -0 -0 -0 -0 -0 -0 -0 -0 -0 -0 -0 -0 -0 -0 -0 -0 -0 -0 -0 -0 -0 -0
nan nan nan nan nan nan nan nan nan nan nan nan nan nan nan nan nan nan nan nan nan nan nan nan nan nan nan nan nan nan nan nan nan nan nan nan nan nan nan nan nan nan nan nan nan nan nan nan nan nan nan nan nan nan nan nan nan nan -0 -0 -0 -0 -0 -0 -0 -0 -0 -0 -0 -0 -0 -0 -0 -0 -0 -0 -0 -0 -0 -0 -0 -0 -0 -0 -0 -0
nan nan nan nan nan nan nan nan nan nan nan nan nan nan nan nan nan nan nan nan nan nan nan nan nan nan nan nan nan nan nan nan nan nan nan nan nan nan nan nan nan nan nan nan nan nan nan nan nan nan nan nan nan nan nan nan nan nan -0 -0 -0 -0 -0 -0 -0 -0 -0 -0 -0 -0 -0 -0 -0 -0 -0 -0 -0 -0 -0 -0 -0 -0 -0 -0 -0 -0
nan nan nan nan nan nan nan nan nan nan nan nan nan nan nan nan nan nan nan nan nan nan nan nan nan nan nan nan nan nan nan nan nan nan nan nan nan nan nan nan nan nan nan nan nan nan nan nan nan nan nan nan nan nan nan nan nan -0 -0 -0 -0 -0 -0 -0 -0 -0 -0 -0 -0 -0 -0 -0 -0 -0 -0 -0 -0 -0 -0 -0 -0 -0 -0 -0 -0 -0
nan nan nan nan nan nan nan nan nan nan nan nan nan nan nan nan nan nan nan nan nan nan nan nan nan nan nan nan nan nan nan nan nan nan nan nan nan nan nan nan nan nan nan nan nan nan nan nan nan nan nan nan nan nan nan -0 -0 -0 -0 -0 -0 -0 -0 -0 -0 -0 -0 -0 -0 -0 -0 -0 -0 -0 -0 -0 -0 -0 -0 -0 -0 -0 -0 -0 -0 -0
nan nan nan nan nan nan nan nan nan nan nan nan nan nan nan nan nan nan nan nan nan nan nan nan nan nan nan nan nan nan nan nan nan nan nan nan nan nan nan nan nan nan nan nan nan nan nan nan nan nan nan nan nan nan nan nan nan -0 -0 -0 -0 -0 -0 -0 -0 -0 -0 -0 -0 -0 -0 -0 -0 -0 -0 -0 -0 -0 -0 -0 -0 -0 -0 -0 -0 -0
nan nan nan nan nan nan nan nan nan nan nan nan nan nan nan nan nan nan nan nan nan nan nan nan nan nan nan nan nan nan nan nan nan nan nan nan nan nan nan nan nan nan nan nan nan nan nan nan nan nan nan nan nan nan nan nan nan -0 -0 -0 -0 -0 -0 -0 -0 -0 -0 -0 -0 -0 -0 -0 -0 -0 -0 -0 -0 -0 -0 -0 -0 -0 -0 -0 -0 -0
nan nan nan nan nan nan nan nan nan nan nan nan nan nan nan nan nan nan nan nan nan nan nan nan nan nan nan nan nan nan nan nan nan nan nan nan nan nan nan nan nan nan nan nan nan nan nan nan nan nan nan nan nan nan nan nan nan -0 -0 -0 -0 -0 -0 -0 -0 -0 -0 -0 -0 -0 -0 -0 -0 -0 -0 -0 -0 -0 -0 -0 -0 -0 -0 -0 -0 -0
nan nan nan nan nan nan nan nan nan nan nan nan nan nan nan nan nan nan nan nan nan nan nan nan nan nan nan nan nan nan nan nan nan nan nan nan nan nan nan nan nan nan nan nan nan nan nan nan nan nan nan nan nan nan nan nan nan nan -0 -0 -0 -0 -0 -0 -0 -0 -0 -0 -0 -0 -0 -0 -0 -0 -0 -0 -0 -0 -0 -0 -0 -0 -0 -0 -0 -0
nan nan nan nan nan nan nan nan nan nan nan nan nan nan nan nan nan nan nan nan nan nan nan nan nan nan nan nan nan nan nan nan nan nan nan nan nan nan nan nan nan nan nan nan nan nan nan nan nan nan nan nan nan nan nan nan nan nan -0 -0 -0 -0 -0 -0 -0 -0 -0 -0 -0 -0 -0 -0 -0 -0 -0 -0 -0 -0 -0 -0 -0 -0 -0 -0 -0 -0
nan nan nan nan nan nan nan nan nan nan nan nan nan nan nan nan nan nan nan nan nan nan nan -6 -6 nan nan nan nan nan nan nan nan nan nan nan nan nan nan nan nan nan nan nan nan nan nan nan nan nan nan nan nan nan nan nan nan nan nan nan nan -0 -0 -0 -0 -0 -0 -0 -0 -0 -0 -0 -0 -0 -0 -0 -0 -0 -0 -0 -0 -0 -0 -0 -0 -0
nan nan nan nan nan nan nan nan nan nan nan nan nan nan nan nan nan nan nan nan nan nan nan nan nan nan nan nan nan nan nan nan nan nan nan nan nan nan nan nan nan nan nan nan nan nan nan nan nan nan nan nan nan nan nan nan nan nan nan nan nan -0 -0 -0 -0 -0 -0 -0 -0 -0 -0 -0 -0 -0 -0 -0 -0 -0 -0 -0 -0 -0 -0 -0 -0 -0
nan nan nan nan nan nan nan nan -12 -12 nan nan nan nan nan nan nan nan nan nan nan nan nan -11 -11 nan nan nan nan nan nan nan nan nan nan nan nan nan nan nan nan nan nan nan nan nan nan nan nan nan nan nan nan nan nan nan nan nan nan nan nan -0 -0 -0 -0 -0 -0 -0 -0 -0 -0 -0 -0 -0 -0 -0 -0 -0 -0 -0 -0 -0 -0 -0 -0 -0
-13 -12 -0 -0 -0 -0 -0 -0 -0 -0 -0 -10 nan nan nan nan nan nan nan nan nan nan -16 -7 -7 nan nan nan nan nan nan nan nan nan nan nan nan nan nan nan nan nan nan nan nan nan nan nan nan nan nan nan nan nan nan nan nan nan nan nan nan nan -0 -0 -0 -0 -0 -0 -0 -0 -0 -0 -0 -0 -0 -0 -0 -0 -0 -0 -0 -0 -0 -0 -0 -0
-0 -0 -0 -0 -0 -0 -0 -0 -0 -0 -0 -0 -0 -0 -16 -35 -17 -17 -6 nan nan nan nan nan nan nan nan nan nan nan nan nan nan nan nan nan nan nan nan nan nan nan nan nan nan nan nan nan nan nan nan nan nan nan nan nan nan nan nan nan nan nan nan -0 -0 -0 -0 -0 -0 -0 -0 -0 -0 -0 -0 -0 -0 -0 -0 -0 -0 -0 -0 -0 -0 -10
nan nan nan -0 -0 -0 -0 -0 -0 -0 -0 -0 -0 -0 -8 -33 -10 -10 -11 nan nan nan nan nan nan nan nan nan nan nan nan nan nan nan nan nan nan nan nan nan nan nan nan nan nan nan nan nan nan nan nan nan nan nan nan nan nan nan nan nan nan nan nan nan nan -0 -0 -0 -0 -0 -0 -0 -0 -0 -0 -0 -0 -0 -0 -0 -0 -0 -0 -0 -0 -13
nan nan nan nan nan nan nan nan nan nan -0 -0 -0 -0 -0 -36 -21 -21 nan nan nan nan -10 -7 -7 nan nan nan nan nan nan nan nan nan nan nan nan nan nan nan nan nan nan nan nan nan nan nan nan nan nan nan nan nan nan nan nan nan nan nan nan nan nan nan nan -0 -0 -0 -0 -0 -0 -0 -0 -0 -0 -0 -0 -0 -0 -0 -0 -0 -2 -17 -17 -27
nan nan nan nan nan nan nan nan nan nan nan -0 -0 -0 nan nan nan nan nan nan nan nan nan nan nan nan nan nan nan nan nan nan nan nan nan nan nan nan nan nan nan nan nan nan nan nan nan nan nan nan nan nan nan nan nan nan nan nan nan nan nan nan nan nan nan -0 -0 -0 -0 -0 -0 -0 -0 -0 -0 -0 -0 -0 -0 -0 -0 -0 -11 nan nan nan
nan nan nan nan nan nan nan nan nan nan nan nan nan nan nan nan nan nan nan nan nan nan nan nan nan nan nan nan -3 -3 nan nan nan nan nan nan nan nan nan nan nan nan nan nan nan nan nan nan nan nan nan nan nan nan nan nan nan nan nan nan nan nan nan nan nan nan nan -0 -0 -0 -0 -0 -0 -0 -0 -0 -0 -0 -0 -0 -0 -0 -11 nan nan nan
nan nan nan nan nan nan nan nan nan nan nan nan nan nan nan nan nan nan nan nan nan nan nan nan nan nan nan nan nan nan nan nan nan nan nan nan nan nan nan nan nan nan nan nan nan nan nan nan nan nan nan nan nan nan nan nan nan nan nan nan nan nan nan nan nan nan nan nan nan nan -0 -0 -0 -0 -0 -0 -0 -0 -0 -0 -0 -0 -0 -19 -19 -15
nan nan nan nan nan nan nan nan nan nan nan nan nan nan nan nan nan nan nan nan nan nan nan nan nan nan nan nan nan nan nan nan nan nan nan nan nan nan nan nan nan nan nan nan nan nan nan nan nan nan nan nan nan nan nan nan nan nan nan nan nan nan nan nan nan nan nan nan nan nan nan nan nan nan nan -0 -0 -0 -0 -0 -0 -0 -0 -0 -0 -9
nan nan nan nan nan nan nan nan nan nan nan nan nan nan nan nan nan nan nan nan nan nan nan nan nan nan nan nan nan nan nan nan nan nan nan nan nan nan nan nan nan nan nan nan nan nan nan nan nan -0 nan nan nan nan nan nan nan nan nan nan nan nan nan nan nan nan nan nan nan nan nan nan nan nan nan nan -0 -0 -0 -0 -0 -0 -0 -0 -0 -0
nan nan nan nan nan nan nan nan nan nan nan nan nan nan nan nan nan nan nan nan nan nan nan nan nan nan nan nan nan nan nan nan nan nan nan nan nan nan nan nan nan -5 nan nan nan nan nan nan nan -0 -0 nan nan nan nan nan nan nan nan nan nan nan nan nan nan nan nan nan nan nan nan nan nan nan nan -0 -0 -0 -0 -0 -0 -0 -0 -0 -0 -0
nan nan nan nan nan nan nan nan nan nan nan nan nan nan nan nan nan nan nan nan nan nan nan nan nan nan nan nan nan nan nan nan nan nan nan nan nan nan nan -5 -5 -2 nan nan nan nan nan nan nan nan nan nan nan nan nan nan nan nan nan nan nan nan nan nan nan nan nan nan nan nan nan nan nan nan nan -0 -0 -0 -0 -0 -0 -0 -0 -0 -0 -0
nan nan nan nan nan nan nan nan nan nan nan nan nan nan nan nan nan nan nan nan nan nan nan nan nan nan nan nan nan nan nan nan nan nan nan nan nan nan nan -5 -5 -3 -4 nan nan nan nan nan nan nan nan nan nan nan nan nan nan nan nan nan nan nan nan nan nan nan nan nan nan nan nan nan nan nan nan nan nan nan nan nan nan nan -0 -0 -0 -0
nan nan nan nan nan nan nan nan nan nan nan nan nan nan nan nan nan nan nan nan nan nan nan nan nan nan nan nan nan nan nan nan nan nan nan nan nan nan nan nan nan nan nan nan nan nan nan nan nan nan nan nan nan nan nan nan nan nan nan nan nan nan nan nan nan nan nan nan nan nan nan nan nan nan nan nan nan nan nan nan nan nan nan nan nan nan
nan nan nan nan nan nan nan nan nan nan nan nan nan nan nan nan nan nan nan nan nan nan nan nan nan nan nan nan nan nan nan nan nan nan nan nan nan nan nan nan nan nan nan nan nan nan nan nan nan nan nan nan nan nan nan nan nan nan -2 nan nan nan nan nan nan nan nan nan nan nan nan nan nan nan nan nan nan nan nan nan nan nan nan nan nan nan
nan nan nan nan nan nan nan nan nan nan nan nan nan nan nan nan nan nan nan nan nan nan nan nan nan nan nan nan nan nan nan nan nan nan nan nan nan nan nan nan nan nan nan nan nan nan nan nan nan nan nan nan nan nan nan nan nan -0 -0 nan nan nan nan -9 -9 nan nan nan nan nan nan nan nan nan nan nan nan nan nan nan nan nan nan nan nan nan
nan nan nan nan nan nan nan nan nan nan nan nan nan nan nan nan nan nan nan nan nan nan nan nan nan nan nan nan nan nan nan nan nan nan nan nan nan nan nan nan nan nan nan nan nan nan nan nan nan nan nan nan nan nan nan nan nan -3 -1 -6 -6 nan -6 nan nan nan nan nan nan nan nan nan nan nan nan nan nan nan nan nan nan nan nan nan nan nan
nan nan nan nan nan nan nan -19 -21 -21 nan nan nan nan nan nan nan nan nan nan nan nan nan nan nan nan nan nan nan nan nan nan nan nan nan nan nan nan nan nan nan nan nan nan nan nan nan nan nan nan nan nan nan nan nan nan nan nan -7 -5 -5 -5 nan nan nan nan nan nan nan nan nan nan nan nan nan nan nan nan nan nan nan nan nan nan nan nan
nan nan nan nan nan nan -23 nan nan nan nan nan nan nan nan nan nan nan nan nan nan nan nan nan nan nan nan nan nan nan nan nan nan nan nan nan nan nan nan nan nan nan nan nan nan nan nan nan nan nan nan nan nan nan nan nan nan nan nan -7 -7 -7 nan nan nan nan nan nan nan nan nan nan nan nan nan nan nan nan nan nan nan nan nan nan nan nan
nan -13 -10 nan nan nan nan nan nan nan nan nan nan nan nan nan nan nan nan nan nan nan nan nan nan nan nan nan nan nan nan nan nan nan nan nan nan nan nan nan nan nan nan nan nan nan nan nan nan nan nan nan nan nan nan nan nan -6 -3 -4 -4 -6 -9 -9 -9 -11 nan nan nan nan nan nan nan nan nan nan nan nan nan nan nan nan nan nan nan nan
-17 -13 -13 -16 -16 nan -13 -16 nan nan nan nan nan nan nan nan nan nan nan nan nan nan nan -22 -22 nan nan nan nan nan nan nan nan nan nan nan nan nan nan nan nan nan nan nan nan nan nan nan nan nan nan nan nan nan nan nan nan nan nan -3 -3 -7 -9 -12 -12 nan nan nan nan nan nan nan nan nan nan nan nan nan nan nan nan nan nan nan nan nan
nan nan nan nan nan nan nan nan nan nan nan nan nan nan nan nan nan nan nan nan nan nan -18 -13 -13 nan -5 nan nan nan nan nan nan nan nan nan nan nan nan nan nan nan nan nan nan nan nan nan nan nan nan nan nan nan nan nan nan nan nan nan nan -9 nan nan nan nan nan nan nan nan nan nan nan nan nan nan nan nan nan -23 -23 -28 -28 -27 -27 -30
-16 -14 nan nan nan nan nan nan nan nan nan nan nan nan nan nan nan nan nan nan nan -20 -6 nan nan nan nan nan nan nan nan nan nan nan nan nan nan nan nan nan nan nan nan nan nan nan nan nan nan nan nan nan nan nan nan nan nan nan nan nan nan nan nan nan nan nan nan nan nan nan nan nan nan nan nan nan nan nan -14 -19 -19 -27 -31 nan nan nan
-17 nan nan -20 -20 -16 nan nan nan nan -13 -13 nan nan nan nan -0 -0 -11 nan nan nan nan nan nan nan nan nan nan nan nan nan nan nan nan nan nan nan nan nan nan nan nan nan nan nan nan nan nan nan nan nan nan nan nan nan nan nan nan nan nan nan nan nan nan nan nan nan nan nan nan nan nan nan nan nan -8 -8 -11 -16 -16 nan nan nan nan nan
nan nan -17 -11 -11 -11 nan -11 -11 -11 -9 -8 -11 -11 nan nan nan nan nan nan nan nan nan nan nan nan nan nan nan nan nan nan nan nan nan nan nan nan nan nan nan nan nan nan nan nan nan nan nan nan -10 -9 nan nan nan nan nan nan nan nan nan nan nan nan nan nan nan nan nan nan nan -40 -29 -29 -18 -11 -11 -11 -13 nan nan nan nan nan nan nan
-8 -16 -18 -16 -16 -10 -12 -11 -7 -7 -5 -4 -3 -3 -12 nan nan nan nan nan nan nan nan nan nan nan nan nan nan nan nan nan nan nan nan nan nan nan nan nan nan nan nan nan nan nan nan nan nan nan -10 -0 -7 -7 nan nan nan nan nan nan nan nan nan nan nan nan -20 nan -39 -39 -44 -32 -24 -24 -18 -12 -10 -10 -11 -11 -11 nan nan nan nan nan
Wind_Speed
2 2 3 4 4 3 3 4 4 3 3 3 2 2 2 3 3 3 5 5 4 4 4 3 3 3 4 7 10 11 12 12 12 12 12 12 12 12 11 11 11 11 11 11 11 11 11 11 11 11 12 12 12 12 12 12 12 12 12 12 13 13 13 13 14 14 14 14 14 14 14 14 14 15 15 15 15 15 15 15 15 16 16 16 16 17
2 2 2 3 4 3 3 4 4 4 3 3 3 3 3 3 2 2 3 4 4 4 3 3 3 4 4 6 8 10 11 12 12 12 12 12 12 12 11 11 11 11 11 11 11 11 11 11 11 11 11 11 11 11 12 12 12 12 12 12 13 13 13 13 14 14 14 14 14 14 14 14 14 15 15 15 15 15 16 16 16 16 16 16 17 17
2 2 2 3 3 3 2 3 3 3 3 3 3 2 2 2 2 2 2 3 3 3 3 3 4 4 5 6 7 9 10 11 11 12 12 12 12 12 12 12 12 11 11 11 11 11 11 11 11 11 11 11 11 11 11 12 12 12 12 12 13 13 13 13 13 14 14 14 14 14 14 14 15 15 15 15 16 16 16 16 16 17 17 17 17 17
2 2 2 2 2 2 2 2 3 2 2 2 2 2 2 2 2 2 3 3 3 3 4 4 4 4 4 4 6 8 10 11 11 11 11 12 12 12 12 12 12 11 11 11 11 11 11 11 11 11 11 11 11 11 11 12 12 12 12 13 13 13 13 13 13 13 14 14 14 14 14 14 15 15 15 16 16 16 16 17 17 17 17 17 18 18
1 2 2 2 2 2 2 2 2 2 2 2 2 2 2 2 2 2 3 3 3 4 4 4 4 4 3 3 4 6 9 10 11 11 11 11 12 12 12 12 12 12 11 11 11 11 10 10 10 11 11 11 11 11 12 12 12 12 12 13 13 13 13 13 13 13 13 13 14 14 14 14 15 15 16 16 16 16 17 17 17 17 17 18 18 18
1 1 2 1 1 1 2 2 2 2 1 2 2 2 2 2 2 2 3 3 4 4 4 4 3 3 3 3 4 6 8 9 10 10 10 11 12 12 12 12 12 12 11 11 11 11 10 10 10 11 11 11 11 12 12 12 12 13 13 13 13 13 13 13 13 13 13 13 13 14 14 14 15 15 16 16 16 16 17 17 17 17 18 18 18 18
1 1 1 1 1 1 1 2 2 2 1 1 2 2 2 2 2 3 3 3 3 3 3 2 2 1 1 2 3 5 6 7 8 8 9 11 11 12 12 12 12 12 11 11 11 11 10 10 10 11 11 11 11 12 12 12 13 13 13 13 13 13 13 13 13 13 13 13 13 14 14 14 15 15 15 16 16 16 17 17 17 17 18 18 18 19
1 1 1 1 1 1 1 1 2 2 2 2 2 2 2 2 3 3 3 3 2 2 2 1 1 1 1 1 2 2 3 3 4 5 7 8 9 10 11 12 12 12 11 11 11 11 10 10 10 11 11 11 12 12 12 13 13 13 13 13 13 13 13 13 13 13 13 13 13 13 14 14 14 15 15 15 16 16 16 17 17 17 18 18 18 19
2 1 1 1 1 1 1 1 2 2 3 2 2 3 3 3 3 2 2 1 1 1 0 0 1 2 2 1 1 1 2 2 2 3 5 5 5 7 9 10 11 11 11 11 11 11 10 11 11 11 11 12 12 13 13 13 13 13 13 13 13 13 13 13 13 13 13 13 13 13 14 14 14 14 15 15 15 16 16 16 17 17 18 18 19 19
1 1 1 1 1 1 1 1 2 3 3 3 3 3 3 3 2 2 1 2 2 1 0 0 0 1 2 2 1 1 2 3 4 6 7 7 7 8 9 9 9 9 11 11 11 11 11 11 12 12 12 13 13 13 13 13 13 13 13 13 13 13 13 13 13 13 13 13 13 13 13 14 14 14 15 15 15 16 16 16 17 17 18 18 19 19
1 1 1 1 1 1 1 2 2 2 2 2 1 1 1 2 2 2 1 2 2 2 1 0 1 1 1 2 2 2 1 2 4 5 7 8 9 9 9 9 8 9 10 10 11 11 12 12 12 13 13 13 13 14 13 13 13 13 13 13 13 13 13 13 13 13 13 13 13 13 14 14 14 14 15 15 16 16 16 17 17 18 18 19 19 20
1 0 1 1 1 1 1 1 1 1 1 1 1 0 1 0 1 2 2 2 2 2 2 1 1 1 1 1 1 1 1 1 2 3 3 4 5 5 6 5 6 7 7 8 9 10 11 12 12 13 13 13 13 13 13 13 13 14 14 14 14 13 13 13 13 13 13 13 14 14 14 14 15 15 15 16 16 17 17 17 18 18 18 19 19 20
0 0 1 1 1 1 1 1 0 1 1 1 1 1 2 1 1 2 2 2 2 2 1 1 2 1 1 1 1 1 1 1 2 2 2 2 2 2 2 2 3 3 4 4 5 6 8 10 11 11 12 12 13 13 14 13 14 14 14 14 14 14 14 14 14 14 14 14 14 15 15 15 16 16 16 17 17 17 18 18 18 19 19 19 20 20
1 1 1 1 1 1 1 0 1 1 0 1 1 2 2 1 1 2 1 1 1 1 0 0 1 2 2 2 1 1 1 1 1 1 1 2 2 1 1 2 2 3 2 3 3 4 6 7 7 8 10 10 11 12 12 13 14 14 14 14 14 14 14 14 14 14 14 15 15 15 16 16 16 17 17 17 17 18 18 18 19 19 19 19 20 20
1 1 1 1 1 1 0 0 1 1 1 1 1 1 0 1 1 1 1 0 1 1 1 1 1 2 2 2 2 1 1 1 1 1 2 2 2 1 1 2 3 3 2 3 3 4 6 5 4 4 6 7 8 9 11 12 13 14 14 14 14 14 14 14 14 15 15 15 16 16 16 17 17 17 17 18 18 18 18 18 19 19 19 20 20 20
1 1 1 1 1 1 1 0 1 1 1 1 0 0 1 1 1 1 1 0 0 1 1 1 2 2 2 2 2 1 1 1 1 2 2 3 2 1 0 2 3 3 3 3 3 4 4 3 4 4 5 7 10 12 13 13 13 14 14 14 14 14 14 14 15 15 15 16 16 16 17 17 17 17 17 18 18 18 18 18 19 19 19 20 20 20
1 1 1 1 1 1 1 0 1 1 1 0 0 1 1 1 1 1 1 1 1 1 1 1 1 1 2 3 2 1 0 0 1 2 3 3 3 2 1 1 3 4 4 4 4 4 3 3 4 4 5 8 11 13 14 13 14 14 14 14 14 14 14 15 15 15 16 16 16 16 17 17 17 17 17 18 18 18 18 18 19 19 19 19 20 20
1 1 1 1 1 1 1 0 0 0 0 0 0 1 1 1 1 1 2 1 1 1 0 0 1 1 1 2 3 2 1 0 2 3 4 4 4 3 1 1 2 3 4 4 4 3 3 4 4 4 6 10 12 13 14 14 14 14 14 14 14 14 14 15 15 15 16 16 16 17 17 17 17 17 17 18 18 18 18 18 18 19 19 19 19 20
0 0 1 1 0 0 1 0 0 0 0 0 1 1 1 1 1 1 1 1 1 1 1 1 1 1 1 2 3 3 1 1 2 3 4 5 4 3 2 2 2 3 4 4 4 4 4 4 5 7 10 12 13 13 14 14 14 14 14 14 14 14 15 15 15 16 16 16 16 16 17 17 17 17 17 17 17 18 18 18 18 19 19 19 19 19
0 0 0 1 0 1 1 1 1 0 0 1 1 2 1 1 1 1 1 1 1 1 1 1 1 2 2 2 2 2 1 2 2 3 4 4 4 3 2 2 2 3 4 4 4 3 4 4 5 7 10 11 12 13 14 14 14 14 14 14 14 14 15 15 15 15 16 16 16 16 16 16 16 17 17 17 17 17 18 18 18 18 19 19 19 19
0 0 1 1 1 1 1 1 2 1 1 1 2 2 1 1 1 1 0 0 0 0 0 1 2 2 2 2 2 2 2 2 2 3 3 4 4 3 2 2 2 3 4 4 4 3 4 4 4 5 7 10 12 13 14 14 14 14 14 14 14 15 15 15 15 15 15 15 16 16 16 16 16 16 17 17 17 17 18 18 18 18 19 19 19 19
1 1 2 2 2 2 1 2 2 2 2 2 2 2 1 1 1 0 1 1 1 1 1 2 2 2 2 2 2 2 1 1 1 2 3 3 4 3 2 1 2 2 3 3 3 3 3 3 3 4 7 10 12 13 14 14 14 14 14 14 14 15 15 15 15 15 15 16 16 16 16 16 17 17 17 17 17 18 18 18 18 18 19 19 19 19
2 2 2 3 3 2 2 2 2 2 2 3 3 3 3 3 2 2 2 2 1 1 2 2 3 2 2 2 2 2 2 2 2 2 2 3 4 3 2 1 1 2 3 3 3 2 2 3 3 4 7 11 13 13 14 14 14 14 14 14 14 14 14 15 15 15 16 16 16 17 17 17 17 17 17 17 17 18 18 18 18 18 19 19 19 19
2 2 2 3 3 3 2 2 3 3 3 3 3 3 4 4 3 3 3 2 2 2 2 2 3 3 2 2 3 3 3 2 1 1 2 3 4 3 2 1 2 3 4 3 3 3 3 3 3 4 5 9 12 13 14 14 14 14 14 14 14 14 14 15 15 16 16 17 17 17 17 17 17 17 17 17 17 17 18 18 18 18 18 19 19 19
3 2 2 3 3 3 3 3 3 3 3 3 3 3 3 3 3 3 2 2 1 2 2 3 3 3 3 3 3 3 3 2 1 2 2 2 3 3 2 1 2 3 4 3 3 3 3 4 4 4 4 6 9 12 12 13 13 13 13 13 13 14 15 15 16 16 17 17 17 17 17 17 17 17 17 17 17 17 18 18 18 18 18 19 19 19
1 1 2 2 3 5 6 7 6 5 5 3 3 3 3 3 2 2 2 2 2 2 3 3 3 3 3 2 2 3 3 2 1 2 2 2 2 3 2 1 2 3 4 4 3 3 4 4 4 4 3 4 7 9 11 11 11 11 12 12 13 14 15 16 17 17 17 17 17 17 17 17 17 17 17 17 17 18 18 18 18 18 18 18 18 18
5 6 6 7 7 7 8 8 9 10 10 8 6 4 2 2 2 2 3 2 2 2 2 3 3 3 3 2 2 3 3 2 1 2 2 1 2 3 2 2 2 3 4 4 4 4 5 5 5 4 3 3 4 5 8 9 9 10 11 13 14 15 16 17 17 17 17 17 17 17 17 17 17 17 17 17 18 18 18 18 18 18 18 17 15 14
9 9 9 9 9 9 9 9 9 9 10 10 10 9 5 2 2 2 3 2 1 2 2 3 3 3 3 2 2 3 2 2 2 1 1 0 1 3 2 2 2 2 3 4 4 5 6 5 4 4 3 2 2 2 4 6 8 10 11 13 15 16 16 16 16 16 16 16 17 17 17 17 17 17 17 18 18 18 18 18 18 18 17 14 10 8
8 8 9 9 9 10 9 9 9 9 10 11 11 10 7 3 2 3 3 2 1 2 3 4 4 4 3 3 3 2 2 3 2 1 1 1 1 2 2 2 2 2 3 4 4 4 3 3 3 2 2 1 1 1 2 4 6 8 10 12 14 15 15 16 16 16 16 16 16 17 17 17 17 18 18 18 18 18 18 19 18 16 12 10 8 6
5 5 6 6 7 7 7 6 6 8 10 11 11 10 7 3 2 2 2 2 2 3 3 4 4 4 3 3 3 2 2 3 2 1 2 1 1 2 2 2 2 2 2 3 4 4 3 2 2 1 1 1 1 1 2 3 4 5 6 9 10 11 13 14 15 15 16 16 16 17 17 17 18 18 18 18 18 18 19 19 17 13 8 7 6 6
3 3 3 3 4 4 4 4 4 5 7 9 9 8 6 3 2 2 2 2 3 3 3 4 4 3 3 3 2 2 2 3 2 1 2 1 1 2 1 2 2 2 1 2 3 4 5 3 1 1 1 2 2 3 3 3 3 3 3 5 6 7 11 12 14 14 15 15 16 16 17 17 18 18 18 18 19 19 19 19 16 12 8 6 6 6
2 3 3 3 3 3 3 3 4 4 4 5 5 5 5 4 3 3 3 3 3 3 3 3 3 3 3 3 3 3 2 2 2 2 1 0 1 2 1 2 2 2 1 1 2 3 4 4 3 3 2 3 4 4 4 4 3 3 3 4 4 5 9 10 11 12 12 13 15 16 16 17 18 18 18 19 19 19 19 19 16 13 8 6 6 6
3 3 3 3 3 3 3 3 3 3 4 4 4 4 4 4 4 3 3 3 3 3 3 3 3 3 3 4 4 4 3 2 2 2 2 1 1 2 1 2 2 3 2 2 2 3 4 4 5 5 5 5 4 4 4 4 4 3 3 3 4 4 7 7 8 8 9 10 11 13 14 15 16 17 18 18 18 18 18 18 17 14 11 7 6 6
3 3 3 3 3 3 3 3 3 4 4 4 4 3 3 3 2 2 1 2 2 2 3 3 3 3 3 3 4 4 3 2 2 3 3 2 2 2 2 3 3 3 3 3 3 3 4 5 5 6 6 5 4 4 4 4 4 4 3 3 3 4 5 5 5 6 7 7 7 8 9 10 12 13 15 16 16 17 17 18 18 17 15 11 9 7
3 3 3 3 3 3 4 4 4 3 3 3 3 3 2 1 1 0 0 0 1 1 1 2 2 2 3 3 3 4 4 2 2 2 3 2 2 2 3 3 3 3 3 4 3 3 4 5 6 7 6 6 5 4 3 3 3 3 3 3 4 4 4 4 4 5 6 6 6 6 6 6 7 8 10 12 14 15 17 18 18 19 19 17 14 11
2 3 3 3 3 3 4 4 4 3 2 2 2 2 1 1 0 0 0 0 0 1 1 1 1 2 2 2 3 4 4 3 2 3 3 2 2 2 3 3 3 3 3 4 4 4 4 5 6 7 7 7 6 5 4 3 3 3 3 4 4 4 5 5 5 5 5 5 6 5 5 5 5 6 7 11 14 16 17 18 19 19 19 19 18 16
2 2 2 2 2 2 3 3 2 2 2 2 2 2 2 1 1 1 1 1 1 1 1 2 2 2 3 3 3 3 4 3 3 3 4 3 2 2 3 3 4 4 4 4 4 5 5 6 6 7 7 6 6 5 5 4 4 4 4 4 5 5 5 5 5 5 5 5 6 6 5 5 5 6 7 11 13 14 16 17 17 18 19 19 19 19
2 2 2 2 2 2 2 2 2 2 1 1 2 2 2 1 1 1 1 1 1 1 2 2 2 3 4 5 5 4 4 4 4 4 4 3 3 3 4 4 4 5 4 4 5 5 5 6 7 7 6 6 6 7 7 6 6 6 5 5 5 5 5 5 5 5 4 5 6 7 7 7 6 6 6 7 8 8 9 9 11 13 15 15 17 18
2 2 2 2 2 1 1 2 2 2 2 2 2 2 2 2 2 2 2 2 2 2 3 3 3 3 4 5 5 6 6 5 5 5 5 4 4 4 5 5 5 5 5 5 5 5 5 6 6 6 6 6 7 7 7 6 7 7 8 7 6 6 5 5 5 5 4 5 6 7 7 6 6 5 5 5 5 5 5 6 7 8 9 8 10 13
2 2 2 2 2 2 2 3 3 2 2 2 2 2 1 2 2 2 2 2 2 3 3 3 3 3 4 5 5 6 6 5 5 5 4 4 4 4 5 5 5 5 5 5 5 5 6 6 7 7 7 7 7 7 7 7 7 8 9 7 6 5 5 5 5 5 4 5 5 6 5 5 5 5 5 5 5 5 5 5 6 6 7 6 6 7
2 2 2 2 2 3 3 3 2 1 1 1 1 2 2 2 3 3 3 3 2 3 3 3 3 3 4 4 4 5 5 5 5 5 4 5 5 5 5 5 5 5 5 5 5 6 6 7 7 8 8 8 8 9 9 9 9 10 10 9 8 8 7 8 7 7 6 5 5 5 5 6 7 7 7 7 6 6 5 5 6 6 6 5 5 5
3 3 2 2 2 3 3 2 2 2 2 2 2 2 2 2 3 3 3 3 2 2 2 2 3 3 4 4 4 4 4 5 5 6 6 6 7 6 6 6 5 5 5 6 6 6 7 7 8 8 8 8 8 8 9 9 9 9 9 9 9 9 9 8 6 5 5 5 5 5 7 7 6 6 7 7 6 6 6 7 8 8 8 6 6 6
3 3 2 3 3 3 3 3 2 2 2 2 2 2 2 2 2 3 3 3 3 3 3 3 3 3 4 4 4 3 3 4 5 6 6 6 6 7 6 7 6 6 5 5 6 7 7 8 8 8 8 8 8 9 10 10 9 9 9 9 9 8 6 5 4 4 5 5 5 6 6 6 6 7 7 7 7 6 6 8 10 11 10 8 7 7
3 3 3 3 3 3 2 2 2 2 2 2 2 3 3 3 3 3 3 3 3 3 3 3 3 3 4 5 5 4 3 3 4 5 5 6 7 7 6 7 7 6 6 5 6 6 7 8 8 8 8 8 8 9 9 9 9 9 8 9 9 8 7 7 7 7 7 6 6 5 6 6 6 7 6 7 7 6 6 6 7 8 9 8 8 8
3 3 3 3 2 2 2 2 2 2 2 3 3 3 3 3 3 3 3 3 3 3 3 3 3 3 4 4 4 4 4 3 3 3 4 5 7 8 7 6 6 6 6 6 6 6 7 7 8 7 7 7 8 9 9 10 10 10 9 9 9 9 9 8 8 8 8 7 7 6 7 6 6 7 7 7 7 7 6 7 7 7 8 7 7 8
3 3 3 2 2 2 3 3 3 3 3 3 3 3 3 3 3 3 3 3 3 3 3 3 3 3 4 5 5 4 4 4 4 3 3 4 4 5 5 5 6 6 6 6 7 7 7 8 8 8 8 8 9 9 9 9 9 9 9 9 9 9 9 8 8 8 8 8 7 7 8 7 6 7 8 8 8 8 7 7 7 7 7 7 7 7
2 2 2 2 2 2 3 3 3 3 3 3 3 3 3 3 3 3 3 3 3 3 3 3 3 3 4 5 5 5 5 6 5 4 4 3 3 4 4 5 6 6 6 7 7 8 8 9 8 8 8 9 9 10 9 9 9 9 9 9 9 8 8 8 7 7 7 7 7 7 6 6 7 8 9 9 9 8 7 7 7 7 6 6 6 6
3 3 2 2 2 2 3 3 3 3 3 4 4 3 3 3 4 4 3 3 3 3 3 3 3 4 4 5 5 5 6 6 6 5 4 3 3 4 4 4 4 5 6 7 8 9 9 9 10 9 9 9 10 10 10 9 9 9 9 9 8 9 9 8 8 7 7 7 7 7 6 6 7 8 9 9 8 8 7 7 6 6 6 6 6 7
2 2 2 2 3 3 3 3 3 3 4 4 4 3 3 4 5 5 4 3 3 3 3 3 4 4 5 5 5 5 6 6 6 5 4 4 4 4 4 4 4 4 5 6 6 7 8 9 10 11 10 10 10 10 11 10 9 9 8 8 8 8 9 9 8 8 7 7 7 7 6 6 7 7 7 8 8 8 8 8 8 7 7 7 7 7
2 2 3 3 3 3 3 3 3 4 4 4 4 4 3 3 3 3 3 3 3 3 3 4 4 5 5 5 5 6 6 6 5 5 4 4 4 4 4 4 4 4 5 5 5 5 5 6 7 9 11 12 12 11 10 10 9 9 8 8 8 8 8 8 8 8 7 8 7 6 6 6 5 5 6 7 9 10 10 9 9 8 7 6 7 7
3 3 3 3 3 3 3 3 4 4 4 5 5 5 4 3 3 3 3 3 3 3 3 4 4 5 6 6 6 6 6 6 6 5 4 4 4 4 4 4 4 4 5 5 5 4 4 4 5 6 7 11 12 12 9 8 8 8 8 8 7 7 7 7 7 7 8 7 7 6 5 5 6 6 6 7 8 10 10 10 9 8 7 6 6 7
Wind_Direction
94 107 115 128 133 140 155 153 150 149 157 165 178 198 224 235 239 242 244 248 251 254 257 260 264 271 275 278 281 285 288 291 293 295 295 294 294 293 291 290 289 287 286 285 285 285 285 285 286 287 288 290 291 292 293 293 293 292 292 291 290 290 289 289 290 290 291 292 293 293 293 293 294 294 294 294 294 293 292 290 288 286 284 283 283 282
97 105 113 130 137 144 156 159 160 162 167 173 182 190 203 220 237 253 262 260 257 255 254 260 264 265 262 268 277 283 286 290 292 293 294 294 294 293 293 291 290 288 287 286 285 285 286 286 287 289 290 291 292 293 293 293 292 292 291 290 289 288 288 289 289 289 290 291 291 291 291 291 291 291 291 290 289 288 287 286 285 284 283 282 282 282
112 116 124 133 139 143 146 159 165 169 170 174 181 189 196 211 228 243 251 256 257 257 256 256 256 256 253 256 269 279 283 288 291 293 294 295 295 295 295 293 292 291 290 289 289 289 290 290 292 293 294 294 294 294 293 292 291 290 289 288 287 286 286 286 286 287 287 287 287 287 287 287 287 287 286 286 285 285 285 284 284 284 283 283 283 283
116 125 134 130 128 128 126 146 160 170 178 185 190 194 197 207 218 227 234 242 250 256 256 250 247 245 244 246 260 272 280 286 290 293 295 296 298 298 299 298 297 296 296 295 295 295 296 296 297 297 297 297 296 295 293 292 290 288 287 286 285 284 283 283 283 283 284 284 284 284 284 284 284 284 283 283 283 283 284 284 284 284 284 283 283 283
112 125 134 127 123 120 117 131 148 167 184 195 201 206 208 213 220 227 234 239 244 247 249 245 241 237 237 237 253 267 277 284 290 294 297 300 302 303 303 302 302 301 301 301 301 301 301 300 300 299 298 297 296 295 294 292 290 289 287 286 285 284 283 283 282 282 282 282 283 283 283 283 283 283 283 283 283 284 284 284 284 284 283 283 282 282
114 119 125 122 123 121 121 132 146 161 179 201 211 217 220 224 228 232 237 240 241 241 242 242 238 233 230 232 251 265 276 286 293 298 302 304 305 306 306 305 304 304 303 303 302 302 301 300 299 299 298 297 296 296 295 295 294 293 292 291 290 289 287 286 285 284 284 284 284 284 283 283 283 283 284 284 284 284 284 284 284 283 283 282 282 281
108 104 107 106 108 112 120 139 156 166 177 199 215 225 232 233 233 232 233 234 235 237 241 244 246 244 243 247 260 270 281 292 300 305 307 307 307 306 305 305 304 304 303 302 302 301 300 299 299 298 298 299 299 300 301 301 301 301 300 299 298 296 294 293 291 289 288 287 286 285 284 284 283 283 283 283 283 283 283 283 283 283 282 282 281 281
113 105 100 105 107 110 117 145 166 178 182 192 208 222 232 233 231 231 232 235 236 237 242 261 285 300 296 284 283 283 285 294 301 305 306 304 303 303 303 303 303 303 303 303 302 302 302 301 302 302 303 304 306 307 307 307 307 307 306 304 303 302 299 297 295 293 290 289 287 286 285 284 283 282 282 282 282 282 282 282 282 282 282 281 281 281
116 119 115 119 121 124 130 163 186 192 191 195 202 210 217 222 228 236 256 275 275 257 214 275 303 308 308 308 303 286 269 267 277 291 297 295 295 297 299 301 303 305 306 307 307 308 308 308 308 309 309 310 310 310 311 310 309 309 308 307 305 303 300 298 296 294 292 289 288 286 285 283 282 282 281 281 281 281 281 281 281 281 281 281 281 281
95 108 116 122 129 139 150 191 206 206 196 198 198 197 194 200 208 230 286 307 313 324 23 130 255 285 302 312 311 298 283 285 293 298 301 300 299 300 301 304 307 310 312 314 315 315 315 314 313 312 312 311 311 311 310 310 309 309 307 306 304 302 300 298 295 293 291 289 287 285 284 283 282 282 281 281 280 280 280 280 280 280 280 280 280 281
74 91 110 133 156 173 183 204 207 197 181 184 183 175 157 170 175 188 246 287 302 314 332 301 205 220 277 307 313 311 309 302 302 303 304 302 302 303 305 309 313 317 320 321 322 322 320 316 314 312 311 310 310 309 309 308 308 307 305 304 302 300 299 296 294 292 290 288 286 285 284 283 282 282 281 281 280 280 280 279 279 279 279 279 280 280
102 114 135 173 189 200 207 210 192 135 113 132 127 346 319 311 152 156 181 232 262 282 300 306 290 237 214 253 285 300 303 291 289 292 296 296 299 302 306 313 319 324 327 327 325 323 319 315 312 310 309 309 308 307 307 306 305 304 303 301 300 298 296 294 292 290 289 287 286 285 284 283 282 281 281 280 279 279 279 278 278 278 278 279 279 279
189 192 198 208 213 215 214 199 97 65 70 113 149 205 251 260 154 131 151 196 222 239 269 310 312 296 254 231 235 253 272 271 269 272 277 283 288 295 307 316 320 324 327 327 322 316 313 310 308 307 306 305 304 303 303 302 301 300 299 298 296 295 293 291 290 288 287 286 285 284 283 282 281 280 279 279 278 277 277 277 277 277 277 277 277 278
243 232 220 225 232 238 232 144 123 125 177 173 181 193 212 195 121 110 122 195 228 235 190 291 304 300 289 265 244 230 236 261 269 274 278 273 269 268 292 310 310 310 313 311 304 296 295 300 301 301 300 299 299 299 298 298 297 296 295 294 292 291 291 289 288 287 286 285 284 283 282 281 280 279 278 277 277 276 275 275 275 275 275 275 275 275
220 211 209 220 236 251 260 122 133 170 220 217 206 183 117 78 85 97 112 232 294 326 31 7 329 312 300 281 264 239 222 259 278 287 292 283 268 250 263 309 307 303 302 297 289 286 287 290 289 286 286 288 288 288 289 291 291 291 291 291 291 290 290 289 288 287 286 285 284 283 282 281 280 279 278 277 276 276 275 275 274 274 274 274 274 274
196 179 181 200 230 256 258 151 152 175 221 236 214 117 94 88 93 107 123 170 312 1 33 19 354 331 309 294 279 251 214 263 286 294 302 296 287 274 252 313 305 299 294 288 283 282 283 279 273 269 272 279 283 285 286 288 289 289 290 291 292 292 292 291 290 289 287 286 285 284 283 282 281 280 280 279 279 278 277 277 276 276 275 275 275 275
175 157 154 163 218 258 256 203 182 185 201 210 140 105 118 132 131 127 125 124 81 42 47 55 6 317 303 302 294 276 201 310 308 306 308 302 297 293 288 297 294 291 290 284 279 277 278 276 273 271 271 277 281 284 286 287 289 290 292 293 294 294 295 294 293 292 291 290 289 288 287 286 285 285 284 283 283 282 281 280 279 279 278 277 277 276
155 146 138 149 205 245 255 238 208 197 177 132 95 83 80 94 109 116 115 110 100 87 80 123 193 233 265 286 285 278 236 356 331 317 311 302 297 292 280 272 277 280 283 280 277 273 271 271 269 270 273 278 281 284 287 289 291 293 294 296 297 298 298 298 298 297 296 295 294 293 291 290 289 288 288 287 286 285 284 282 281 280 279 279 278 277
79 131 131 157 201 262 317 324 328 351 71 117 111 91 65 51 60 81 97 113 131 146 167 194 226 238 244 264 270 271 247 10 344 320 307 299 296 293 290 280 277 277 278 277 276 273 269 268 268 270 273 277 281 284 288 291 293 294 296 298 300 301 302 302 302 301 299 298 297 295 293 292 291 290 288 287 286 285 284 282 281 281 280 280 279 279
29 354 160 156 114 23 347 325 309 282 204 147 115 95 74 49 43 51 64 122 163 170 168 192 234 254 261 272 279 291 10 21 355 319 298 293 291 291 289 277 274 276 276 274 271 267 264 262 265 268 271 275 280 285 289 292 294 296 298 301 303 304 305 305 304 303 301 299 298 296 294 293 292 290 289 288 286 285 285 284 283 283 283 282 281 281
58 309 242 170 123 91 333 281 260 233 189 136 103 88 82 65 44 24 313 254 229 226 204 245 255 262 272 287 299 316 2 5 336 307 294 291 288 286 278 260 260 267 272 270 265 259 254 254 254 257 262 274 280 286 290 293 295 298 300 303 305 306 306 306 305 304 303 302 301 299 298 297 296 295 294 293 291 290 289 289 288 287 286 285 284 283
136 227 232 188 161 151 208 232 232 220 178 134 117 111 132 128 137 226 241 226 228 252 256 261 267 275 289 294 299 306 335 326 295 286 290 288 285 280 265 242 243 258 265 266 261 254 247 248 248 252 259 274 282 288 291 294 296 299 302 305 306 307 307 307 307 307 307 306 305 304 303 302 301 300 299 297 296 295 294 292 291 290 289 287 286 285
152 186 208 198 190 186 197 212 218 213 185 154 152 160 168 165 172 188 200 194 204 229 251 264 276 287 296 297 294 292 286 260 250 254 269 275 278 275 259 234 245 263 267 267 269 267 263 256 252 256 264 277 283 288 291 294 297 300 303 305 307 308 309 309 310 310 310 309 308 307 306 305 304 302 301 299 298 296 295 293 292 291 289 288 287 286
156 177 194 196 196 195 195 202 205 205 194 181 176 177 177 174 175 180 183 186 200 232 259 276 286 292 298 302 301 295 284 261 228 208 227 258 267 270 262 255 274 280 278 275 273 274 277 271 263 258 260 274 280 285 290 294 298 301 304 306 307 309 310 311 311 312 311 310 309 308 307 305 304 302 301 299 298 296 295 294 293 292 291 290 289 287
162 176 195 203 209 214 223 231 226 212 198 193 186 182 183 187 187 186 186 198 226 256 277 286 288 287 292 301 301 295 284 269 213 185 202 248 264 270 266 266 280 285 286 285 282 281 283 280 273 264 257 267 276 282 289 294 298 301 304 307 309 310 311 312 312 312 311 310 309 308 307 306 304 303 302 300 299 298 297 296 295 295 294 293 292 290
161 210 255 275 284 290 296 297 293 283 268 242 210 186 186 196 205 219 234 243 249 257 269 275 276 277 282 289 287 281 279 278 221 185 191 243 273 283 285 280 280 284 290 291 290 288 286 284 279 271 260 262 272 280 287 293 298 303 306 308 310 311 311 311 310 310 309 309 309 308 307 306 306 304 304 302 301 300 299 299 298 298 297 296 295 293
346 335 327 322 319 316 313 311 308 303 299 292 281 263 231 209 220 242 246 239 232 232 244 258 267 273 276 272 265 264 269 276 250 205 185 234 277 286 289 287 284 288 293 295 293 289 287 285 282 277 269 261 265 276 287 295 302 307 310 310 310 310 309 309 308 308 308 308 308 308 307 307 306 306 305 304 303 302 302 301 301 300 300 299 297 294
353 347 341 334 328 322 315 311 309 307 304 300 295 291 284 266 249 255 254 236 215 216 239 257 267 273 272 264 257 256 260 264 258 239 174 210 272 277 281 290 296 300 302 301 296 289 283 278 275 271 267 262 262 278 292 302 308 310 310 309 308 307 306 306 306 306 306 307 307 307 307 307 306 306 306 305 305 304 303 303 303 302 301 300 298 295
355 349 342 335 329 325 322 321 317 311 304 299 295 293 290 280 261 257 257 238 227 237 251 258 262 266 268 267 266 263 258 254 255 248 100 85 275 273 282 310 325 328 324 312 304 295 279 264 256 254 256 263 273 291 295 306 308 307 305 303 303 302 303 303 303 304 305 305 306 306 306 306 306 306 306 306 305 305 304 304 303 303 301 299 295 291
351 348 341 332 328 326 325 323 315 308 303 298 295 292 289 284 263 248 245 228 228 240 253 257 258 260 266 274 277 276 267 262 257 229 99 79 284 278 296 321 327 331 341 327 317 308 297 272 244 229 245 291 298 289 286 295 295 293 293 295 296 297 298 299 301 302 303 304 305 305 305 305 306 306 305 305 305 304 304 304 303 302 298 294 291 287
331 332 323 318 318 320 320 311 305 301 300 297 295 292 289 281 254 228 215 206 210 222 239 249 253 256 260 271 276 275 272 266 251 217 109 80 284 275 294 313 312 311 344 339 323 313 308 300 282 245 291 306 300 295 291 289 287 283 280 284 286 289 293 296 299 301 302 303 304 304 304 304 304 304 304 304 303 303 303 303 302 300 295 291 288 285
310 312 306 305 308 311 311 307 302 299 296 293 290 286 279 268 246 217 199 193 194 200 214 231 242 249 251 255 258 260 261 263 249 229 93 48 286 272 275 298 300 298 294 305 300 298 301 303 305 308 311 305 300 297 294 290 286 281 279 280 281 285 291 294 297 300 301 302 302 302 302 302 302 302 302 301 302 301 301 301 301 299 294 289 284 282
308 310 307 309 309 310 306 302 299 294 290 286 281 278 276 270 257 236 208 197 192 193 197 214 231 244 249 253 256 258 260 261 271 287 329 330 295 285 288 296 299 298 297 288 277 273 278 290 299 305 305 302 298 296 294 291 286 281 278 281 282 285 289 293 295 297 297 298 299 299 299 299 299 298 299 299 299 299 299 299 298 296 292 288 283 281
316 314 312 313 312 310 306 302 298 294 290 288 286 283 280 278 272 260 232 214 204 202 202 216 231 244 252 258 261 262 264 261 281 304 326 321 300 293 297 298 299 301 302 296 287 279 275 283 291 298 301 300 298 294 292 290 288 283 274 272 276 282 286 290 291 291 291 293 293 292 293 293 293 293 294 295 295 296 296 296 296 295 294 292 289 286
321 315 312 310 309 307 305 303 300 298 297 298 296 293 290 290 286 278 239 210 208 212 219 229 237 243 249 260 267 269 271 263 279 310 321 312 302 296 296 292 296 299 300 295 292 290 285 285 288 293 297 299 298 295 290 286 286 283 275 269 271 275 280 282 285 287 288 288 286 284 283 283 283 285 287 289 291 292 294 295 295 295 295 294 292 291
320 311 303 299 297 297 297 296 296 298 304 304 304 307 319 333 355 7 241 206 230 251 257 252 248 242 237 246 258 268 275 271 279 293 303 301 298 293 290 288 291 294 293 290 289 288 287 288 288 290 291 293 296 297 295 291 289 288 287 281 279 278 277 276 276 278 281 282 282 281 278 276 275 276 278 285 288 291 293 294 295 295 294 293 291 289
305 295 287 283 280 280 284 286 292 299 306 300 300 303 308 301 289 275 252 237 243 265 283 276 272 265 259 254 256 262 273 280 287 291 295 293 287 282 279 281 282 282 279 281 283 285 286 288 288 288 286 286 289 295 300 304 302 297 292 289 287 284 281 276 271 268 269 273 275 276 277 276 276 277 278 285 289 291 293 294 293 292 291 290 288 287
283 276 273 266 261 260 269 280 289 294 289 278 274 272 266 257 255 260 258 248 245 248 260 266 269 271 272 274 271 270 274 280 284 285 283 277 271 268 269 273 273 271 266 268 274 278 281 284 286 288 287 284 284 288 295 300 302 299 295 292 288 284 280 275 268 262 262 268 273 276 279 279 279 280 281 284 287 288 289 288 286 286 287 286 286 285
257 255 257 260 261 262 264 269 271 268 257 248 249 253 255 265 273 276 269 261 253 249 247 253 259 265 268 271 274 276 277 277 274 269 263 256 253 254 259 265 267 267 263 261 263 266 270 273 277 282 286 288 289 289 291 292 294 295 297 295 290 283 277 275 272 269 266 271 276 279 281 281 280 279 278 279 278 278 278 278 279 279 281 283 284 284
242 245 257 266 273 272 262 263 258 248 233 241 257 279 301 314 314 308 295 284 277 270 262 263 266 269 270 271 273 275 275 271 264 258 251 243 241 243 249 256 262 265 265 261 259 259 260 265 269 273 277 282 286 289 290 289 289 292 295 296 294 290 287 287 285 281 275 272 273 276 279 278 276 274 273 272 271 271 271 273 275 277 277 277 280 282
252 266 285 280 273 269 267 272 270 262 252 308 335 340 335 328 320 312 304 300 293 287 285 285 283 279 275 271 268 268 267 262 255 250 244 237 236 238 244 250 256 260 264 262 260 258 257 262 267 270 272 275 279 282 283 283 285 288 290 289 289 290 293 290 288 286 282 276 272 272 277 280 281 279 277 276 273 269 266 268 271 273 273 269 267 269
279 291 298 283 271 268 270 281 296 316 342 355 346 331 316 308 301 299 298 297 294 290 288 289 289 288 285 278 269 263 259 256 252 248 244 237 234 234 239 245 250 254 258 261 261 260 257 260 264 267 270 273 276 279 280 280 281 282 282 283 287 290 290 286 282 280 282 280 278 277 280 282 283 282 280 278 275 271 267 265 265 267 269 265 261 258
294 295 285 274 268 267 272 284 302 320 336 331 313 298 289 283 283 286 289 291 290 290 289 286 287 289 291 290 285 277 264 254 249 246 244 238 233 232 236 241 244 247 250 258 262 262 261 259 260 262 265 268 271 274 278 281 282 281 278 280 285 290 291 289 288 286 283 282 281 280 279 279 279 278 278 277 275 273 269 267 266 265 265 264 262 259
283 276 272 269 268 270 278 293 308 313 309 298 290 286 282 276 276 280 283 283 284 287 287 286 287 287 288 289 290 289 283 268 255 249 246 242 236 232 235 237 239 241 241 248 257 263 266 263 262 261 263 265 267 270 273 278 280 280 279 279 280 280 279 287 293 294 290 285 281 278 276 276 278 279 279 277 276 273 270 266 262 260 259 258 258 257
265 265 267 269 274 280 290 296 299 299 294 289 285 283 282 276 277 277 276 278 280 283 283 288 290 290 289 291 293 296 295 288 278 269 263 256 252 248 243 240 239 239 240 243 250 257 265 267 269 269 268 267 266 267 271 275 278 280 280 280 278 276 275 280 285 287 287 285 283 280 277 276 279 281 281 279 275 272 268 264 262 259 256 253 252 252
256 260 264 270 277 284 290 292 293 291 286 281 279 278 277 273 272 273 273 275 278 280 281 283 287 290 292 297 300 301 302 299 294 289 281 271 262 256 249 247 246 246 246 248 250 252 256 262 268 273 275 272 269 267 266 271 276 279 280 281 280 279 278 278 278 279 280 281 281 279 277 277 278 279 279 278 276 274 269 265 262 260 258 254 251 250
257 260 264 271 277 281 284 287 287 285 281 279 277 275 273 272 271 272 272 271 274 278 284 284 284 286 290 295 298 299 298 297 295 292 284 276 269 262 256 254 251 250 250 252 253 254 255 257 260 265 270 273 273 271 269 269 271 274 278 280 280 279 278 277 276 275 275 275 276 276 278 279 278 276 275 276 276 275 272 268 264 262 261 261 260 259
263 269 275 281 284 286 286 284 283 281 280 279 278 275 271 271 275 277 277 273 276 281 289 289 288 286 284 285 286 287 288 289 290 290 288 283 277 272 264 260 256 254 253 254 255 256 256 255 254 255 259 264 268 271 273 271 270 271 274 276 277 277 276 275 275 274 272 270 268 268 270 272 274 275 276 277 276 276 275 274 273 272 272 273 273 272
272 277 284 288 289 288 285 284 282 281 281 281 281 279 273 274 280 283 283 282 281 282 284 283 284 283 282 281 280 281 282 284 286 287 287 284 281 278 273 269 268 267 265 261 260 259 258 255 250 247 246 250 257 264 269 270 270 269 270 271 272 272 273 274 275 274 272 269 266 263 261 263 265 268 273 277 279 281 283 284 283 281 279 276 273 270
282 281 284 286 286 286 285 286 286 285 285 287 288 289 286 281 279 278 277 276 275 274 273 275 277 279 281 281 280 280 280 280 282 282 282 282 282 282 281 279 279 280 279 275 271 268 266 261 252 244 239 240 245 252 262 266 268 268 268 267 267 268 271 273 275 275 274 274 272 269 265 265 266 269 273 278 283 286 287 286 284 281 278 274 270 267
287 283 279 280 282 284 287 289 289 288 288 290 292 293 293 291 287 281 274 274 273 273 273 272 273 275 277 279 279 279 278 279 280 280 279 280 281 282 281 281 283 284 285 285 284 282 281 281 275 263 249 243 242 245 254 260 266 269 269 267 267 268 271 274 276 277 278 278 279 279 278 278 278 278 279 282 285 286 286 284 283 280 277 274 271 268